Regional Weather Roundup
Issued by NWS

Home | Current Version | Previous Version | Text Only | Print | Product List | Glossary On
Versions: 1 2 3 4 5 6 7 8 9 10 11 12 13 14 15 16 17 18 19 20 21 22 23 24 25 26
000
ASUS42 KKEY 241610
RWRKEY

FLORIDA REGIONAL WEATHER ROUNDUP FOR THE FLORIDA KEYS
NATIONAL WEATHER SERVICE KEY WEST FLORIDA
1200 PM EDT TUE APR 24 2018

...SOUTH FLORIDA AND THE KEYS...

CITY           SKY/WX    TMP DP  RH WIND       PRES   REMARKS
FORT MYERS     PTSUNNY   85  71  63 SW10      29.98F HX  90
SW REGIONAL AP PTSUNNY   80  74  81 SW13      29.99F
NAPLES         PTSUNNY   81  75  82 SW13      30.00S
MIAMI          PTSUNNY   86  71  60 W6        30.00S HX  91
WEST KENDALL   FAIR      88  68  51 VRB6      29.99F HX  91
HOMESTEAD      FAIR      87  69  55 CALM      29.99  HX  91
MARATHON       FAIR      87  72  60 VRB5      30.01S HX  93
KEY WEST INTL  FAIR      81  73  76 SW8       30.02S

...INTERNATIONAL WEATHER...

CITY           SKY/WX    TMP DP  RH WIND       PRES   REMARKS
NASSAU BAHAMAS NOT AVBL
CANCUN MEXICO  MOSUNNY   86  73  66 SE9       30.03S HX  93
COZUMEL MEXICO MOSUNNY   86  73  66 CALM      30.01S HX  93

ADJACENT COASTAL WATERS...

STATION/POSITION TIME  SKY/WX   TEMP    WIND        PRES    WAVE
                                AIR SEA DIR/SP/G            HT/PER
                 (UTC)          (F)     (DEG/KT/KT) (MB)    (FT/S)
PULASKI SHOAL LI 1600            78     260/  7/  8 1016.7R
SAND KEY         1550            78                 1016.7R
SOMBRERO KEY     1550            78     210/  6/  7 1015.9S
LONG KEY         1600            79 83  300/  3/  5 1016.1
MOLASSES REEF    1600            78     300/  2       N/A
FOWEY ROCKS      1600            82 79  180/  8/  8 1016.7F
Buoy 42078       1530               80                N/A     1
Buoy 42097       1530               77                N/A     2/ 5

$$




USA.gov is the U.S. government's official web portal to all federal, state and local government web resources and services.